METEOR 2-10

Satellite information

Favourite Embed

Satellite Type and Status

PAYLOADIN ORBIT

Key statistics

Satellite METEOR 2-10 at a glance.

Uptime

15283

Days in orbit

Revolutions

≈ 14.3

Per day

Orbit

LEO

Low Earth Orbit

Inclination

81.2

Latest

Satellite identification and parameters

Extended collection of information and parameters for METEOR 2-10.

Object identification

Identified? True

Debris? False

Object name: METEOR 2-10

International designator: 1983-109A

Object number (NORAD): 14452

Object ID (CCSDS): 14452

Country: COMMONWEALTH OF INDEPENDENT STATES (CIS)

Current information (Y/N): Y

RCS size: LARGE

Orbital parameters

Period: 100.899 minutes

Inclination: 81.16 deg

SMA: 7179.324 km

Apoapsis: 865.26 km

Periapsis: 737.117 km

RAAN: 290.4864 deg

Eccentricy: 0.00892442

Argument of periapsis: 326.5196 deg

Mean anomaly: 33.036 deg

Mean motion: 14.27175735 rev/day

Mean motion (dot): 0.00000165 rev/day2

B* drag term: 0.00006008053 1/REarth

Two-line elements (TLE)

Creation date: Aug. 31, 2025, 2:26 a.m.

Reference frame: TEME

Reference center: EARTH

Epoch: Aug. 30, 2025, 8:18 p.m. UTC

TLE line 0: 0 METEOR 2-10

TLE line 1: 1 14452U 83109A 25242.84623094 .00000165 00000-0 60081-4 0 9999

TLE line 2: 2 14452 81.1600 290.4864 0089244 326.5196 33.0360 14.27175735176007

Live tracking on map

Real-time ground track for satellite METEOR 2-10.

In-orbit conjunctions

A list of the most updated potential collisions computed for object METEOR 2-10.

Target Orbit TCA Probability of collision Miss distance Type
FENGYUN 1C DEB SSO 2025-06-20 13:29:57 0.0001019355 1000.0 (m) DEBRIS
NOAA 16 DEB SSO 2025-04-30 16:56:27 0.0001304968 326.0 (m) DEBRIS
DELTA 1 DEB SSO 2024-12-07 02:12:16 0.0002346025 245.0 (m) DEBRIS
NOAA 16 DEB SSO 2024-11-30 11:11:51 0.0001368331 336.0 (m) DEBRIS
FENGYUN 1C DEB SSO 2024-11-01 05:32:26 0.0003281131 142.0 (m) DEBRIS

Associated space launch

Second generation soviet meteorological satellite

METEOR 2-10 was lifted into orbit during the mission ‘Vostok 8A92M | Meteor-2 10’, on board a Vostok 8A92M space rocket.

The launch took place on Oct. 28, 1983, 9 a.m. from 16/2.

For more information about the launch, click the button.

Launch to space Vostok 8A92M | Meteor-2 10
Vostok 8A92M | Meteor-2 10

Agency: N/A

Status: Launch Successful

Launch date: Oct. 28, 1983, 9 a.m. UTC

Rocket: Vostok 8A92M

Launch pad: 16/2

Location: Plesetsk Cosmodrome, Russian Federation

...

Latest news about this satellite

There are no fresh news available about this satellite. Check back as we update our databases every day.


Newsletter sign-up

Weekly statistics, charts and insights to help you stay on top of the space industry.